Terug naar catalogus

CZ-6A DEB

ActiefPO
NORAD 60673·DEBRIS·🇨🇳 China

Gelanceerd Aug 6, 2024 vanaf Taiyuan Satellite Launch Center

Loading…

Volgende Passages (komende 24 uur)

TLE

VersSource: Space-Track

Epoch: Sep 14, 2026, 18:59 UTC

1 60673U 24140CA  26257.79164719  .00006269  00000-0  60980-3 0  9998
2 60673  89.2702 284.2606 0204662 271.0076  86.7705 14.77968957112698

Volg CZ-6A DEB in realtime met AllMySat

Download on the App Store